{"data":{"norad_id":53720,"epoch":"2026-09-20T02:55:17.107392Z","epoch_age_seconds":114408,"freshness":"FRESH","line1":"1 53720U 22107W   26263.12172578  .00002919  00000+0  97508-4 0  9994","line2":"2 53720  53.1584  85.3646 0001056  89.2810 270.8314 15.34390468223989","mean_motion":15.34390468,"eccentricity":0.0001056,"inclination_deg":53.1584,"raan_deg":85.3646,"arg_perigee_deg":89.281,"mean_anomaly_deg":270.8314,"bstar":9.7508e-5,"rev_number":22398,"period_min":93.848341086019,"perigee_km":462.0091757454,"apogee_km":463.4539671877,"semimajor_km":6840.8685714665,"source":"CELESTRAK","updated_at":"2026-09-21T09:00:32.985247Z"}}